Regional Weather Roundup
Issued by NWS

Home | Current Version | Previous Version | Text Only | Print | Product List | Glossary Off
Versions: 1 2 3 4 5 6 7 8 9 10 11 12 13 14 15 16 17 18 19 20 21 22 23 24 25 26 27

000
ASUS45 KSLC 271910
RWRUT

UTAH REGIONAL WEATHER ROUNDUP
NATIONAL WEATHER SERVICE SALT LAKE CITY UT
100 PM MDT WED JUL 27 2016

UTZ001>011-023>025-272000-

NORTHERN UTAH

CITY           SKY/WX    TMP DP  RH WIND       PRES   REMARKS
BRIGHAM CITY     N/A     91  24   9 CALM      30.15S
HILL AFB       SUNNY     90  33  12 VRB5      30.19S
LOGAN          SUNNY     90  36  14 NW5       30.16F
OGDEN          SUNNY     93  29  10 VRB5      30.15F
PROVO AIRPORT  SUNNY     88  52  29 VRB5      30.17F
SALT LAKE CITY SUNNY     97  27   8 NW5       30.13S HX  91
VERNAL         SUNNY     87  39  18 CALM      30.19F
WENDOVER       SUNNY     93  36  13 SE9       30.14F
HEBER CITY     SUNNY     88  32  13 N3        30.22F

$$

UTZ012>022-026-027-272000-

SOUTHERN/CENTRAL UTAH

CITY           SKY/WX    TMP DP  RH WIND       PRES   REMARKS
BLANDING       SUNNY     90  45  21 SE6       30.31F
BRYCE CANYON   SUNNY     89  16   7 NW12G23   30.40F
CEDAR CITY     SUNNY     94  35  12 CALM      30.22S
DELTA          SUNNY     95  30  10 W3        30.16F
MILFORD        SUNNY     94  36  13 S6        30.17F
MOAB/CYNLANDS  SUNNY     95  42  16 VRB6      30.12F HX  91
PRICE          SUNNY     90  37  15 SW8       30.24F
ST GEORGE      CLEAR    102  48  16 NW5       30.00F HX  99

$$

REGIONAL REPORTS     COLORADO/ARIZONA

CITY           SKY/WX    TMP DP  RH WIND       PRES   REMARKS
CRAIG, CO      SUNNY     89  29  11 MISG      30.26F
GRAND JUNCTION SUNNY     92  42  17 SW7       30.16F
RIFLE          SUNNY     89  39  17 CALM      30.21F
MONTROSE       SUNNY     89  40  17 N7        30.25F
CORTEZ         SUNNY     92  46  20 CALM      30.24F
PAGE, AZ       SUNNY     98  41  14 E3        30.10F HX  93
GRAND CANYON   SUNNY     92  34  13 NE8G17    30.32F
KINGMAN        SUNNY    102  49  16 W12G21    30.04F HX  99
FLAGSTAFF      PTSUNNY   83  43  24 N6        30.35S

$$

REGIONAL REPORTS    NEVADA/IDAHO/WYOMING

CITY           SKY/WX    TMP DP  RH WIND       PRES   REMARKS
LAS VEGAS, NV  MOSUNNY  109  39   9 VRB3      29.87F HX 103
ELY            SUNNY     92  22   8 N5        30.28F
ELKO           SUNNY     92  24   8 CALM      30.18F
POCATELLO, ID  SUNNY     87  43  21 NW5       30.17F
BURLEY         SUNNY     84  47  27 VRB3      30.13F
EVANSTON, WY   SUNNY     85  22  10 W16G25    30.35S
ROCK SPRINGS   SUNNY     85  18   8 NW12G21   30.30F
KEMMERER         N/A    N/A N/A N/A W12G20    30.35F

$$




USA.gov is the U.S. government's official web portal to all federal, state and local government web resources and services.